| time (UTC) | temp C | wind direction | speed KPH | gust KPH | rain 1hr cm | rain 24hr cm | rain mn cm | humidity % | barometer mb |
| 20260503200153 | 18 | 90 | 4.8 | 11.3 | 0.00 | 0.00 | 0.00 | 43 | 1004.2 |
| 20260503193150 | 20 | 135 | 4.8 | 8.0 | 0.00 | 0.00 | 0.00 | 38 | 1004.0 |
| 20260503191649 | 20 | 90 | 3.2 | 6.4 | 0.00 | 0.00 | 0.00 | 36 | 1004.1 |
| 20260503190147 | 18 | 90 | 4.8 | 9.7 | 0.00 | 0.00 | 0.00 | 38 | 1004.1 |
| 20260503180146 | 20 | 0 | 3.2 | 6.4 | 0.00 | 0.00 | 0.00 | 40 | 1003.9 |
| 20260503174643 | 21 | 90 | 0.0 | 0.0 | 0.00 | 0.00 | 0.00 | 42 | 1003.8 |
| 20260503173142 | 22 | 90 | 0.0 | 0.0 | 0.00 | 0.00 | 0.00 | 45 | 1003.7 |
| 20260503171640 | 23 | 90 | 0.0 | 0.0 | 0.00 | 0.00 | 0.00 | 39 | 1003.6 |
| 20260503170138 | 23 | 90 | 0.0 | 0.0 | 0.00 | 0.00 | 0.00 | 37 | 1003.5 |
| 20260503160135 | 29 | 90 | 3.2 | 9.7 | 0.00 | 0.00 | 0.00 | 18 | 1002.9 |
| 20260503160131 | 29 | 90 | 3.2 | 9.7 | 0.00 | 0.00 | 0.00 | 18 | 1002.9 |
| 20260503150130 | 28 | 135 | 8.0 | 17.7 | 0.00 | 0.00 | 0.00 | 15 | 1003.0 |
| 20260503150126 | 28 | 135 | 8.0 | 17.7 | 0.00 | 0.00 | 0.00 | 15 | 1003.0 |
| 20260503140130 | 30 | 0 | 4.8 | 14.5 | 0.00 | 0.00 | 0.00 | 17 | 1003.9 |
| 20260503140126 | 30 | 0 | 4.8 | 14.5 | 0.00 | 0.00 | 0.00 | 17 | 1003.9 |
| 20260503130130 | 30 | 270 | 1.6 | 6.4 | 0.00 | 0.00 | 0.00 | 18 | 1003.9 |
| 20260503130126 | 30 | 270 | 1.6 | 6.4 | 0.00 | 0.00 | 0.00 | 18 | 1003.9 |
| 20260503120129 | 28 | 180 | 3.2 | 6.4 | 0.00 | 0.00 | 0.00 | 21 | 1005.1 |
| 20260503120124 | 28 | 180 | 3.2 | 6.4 | 0.00 | 0.00 | 0.00 | 21 | 1005.1 |
| 20260503110123 | -17 | 180 | 4.8 | 11.3 | 0.00 | 2.03 | 0.00 | 24 | 1006.1 |
| 20260503110119 | 28 | 180 | 4.8 | 11.3 | 0.00 | 0.00 | 0.00 | 24 | 1006.1 |
| 20260503100115 | -17 | 90 | 3.2 | 0.0 | 0.00 | 0.00 | 0.00 | 26 | 1006.5 |
| 20260503090110 | 23 | 135 | 1.6 | 6.4 | 0.00 | 0.00 | 0.00 | 34 | 1007.8 |
| 20260503080105 | 20 | 90 | 1.6 | 4.8 | 0.00 | 0.00 | 0.00 | 40 | 1008.1 |
| 20260503071608 | 18 | 135 | 1.6 | 4.8 | 0.00 | 0.00 | 0.00 | 47 | 1009.5 |
| 20260503071603 | 18 | 135 | 1.6 | 4.8 | 0.00 | 0.00 | 0.00 | 47 | 1009.5 |
| 20260503053059 | 9 | 222 | 1.6 | 6.4 | 0.00 | 0.00 | 0.00 | 72 | 1010.7 |
| 20260503051557 | 8 | 222 | 0.0 | 0.0 | 0.00 | 0.00 | 0.00 | 77 | 1010.7 |
| 20260503050057 | 6 | 222 | 1.6 | 6.4 | 0.00 | 0.00 | 0.00 | 78 | 1012.0 |
| 20260503044556 | 6 | 270 | 0.0 | 0.0 | 0.00 | 0.00 | 0.00 | 87 | 1012.1 |
| 20260503043055 | -17 | 270 | 0.0 | 0.0 | 0.00 | 0.00 | 0.00 | 85 | 1012.2 |
| 20260503041555 | 4 | 270 | 0.0 | 0.0 | 0.00 | 0.00 | 0.00 | 86 | 1012.3 |
| 20260503040055 | 4 | 222 | 0.0 | 0.0 | 0.00 | 0.00 | 0.00 | 88 | 1012.3 |
| 20260503034551 | 3 | 222 | 0.0 | 0.0 | 0.00 | 0.00 | 0.00 | 86 | 1012.3 |
| 20260503033052 | 4 | 222 | 0.0 | 0.0 | 0.00 | 0.00 | 0.00 | 85 | 1012.3 |
| 20260503031550 | 4 | 90 | 0.0 | 0.0 | 0.00 | 0.00 | 0.00 | 85 | 1012.2 |
| 20260503024545 | 5 | 135 | 0.0 | 0.0 | 0.00 | 0.00 | 0.00 | 85 | 1012.2 |
| 20260503023044 | 4 | 135 | 0.0 | 0.0 | 0.00 | 0.00 | 0.00 | 83 | 1012.2 |
| 20260503021547 | 5 | 135 | 0.0 | 0.0 | 0.00 | 0.00 | 0.00 | ||
| 20260503021542 | 5 | 135 | 0.0 | 0.0 | 0.00 | 0.00 | 0.00 | 82 | 1012.2 |
| 20260503020040 | 5 | 135 | 0.0 | 0.0 | 0.00 | 0.00 | 0.00 | 84 | 1012.2 |
| 20260503014539 | 5 | 135 | 0.0 | 0.0 | 0.00 | 0.00 | 0.00 | 83 | 1012.2 |
| 20260503013038 | 5 | 135 | 0.0 | 0.0 | 0.00 | 0.00 | 0.00 | 83 | 1012.1 |
| 20260503011539 | 5 | 135 | 0.0 | 0.0 | 0.00 | 0.00 | 0.00 | 80 | 1012.1 |
| 20260503010038 | 6 | 135 | 0.0 | 0.0 | 0.00 | 0.00 | 0.00 | 79 | 1012.0 |
| 20260503004536 | 6 | 135 | 0.0 | 0.0 | 0.00 | 0.00 | 0.00 | 77 | 1012.0 |
| 20260503003034 | 6 | 135 | 0.0 | 0.0 | 0.00 | 0.00 | 0.00 | 76 | 1012.0 |
| 20260503001532 | 6 | 135 | 0.0 | 0.0 | 0.00 | 0.00 | 0.00 | 75 | 1011.9 |
| 20260503000032 | 7 | 135 | 0.0 | 0.0 | 0.00 | 0.00 | 0.00 | 73 | 1011.9 |
| 20260502234530 | 7 | 135 | 0.0 | 0.0 | 0.00 | 0.00 | 0.00 | 72 | 1011.8 |
| 20260502233028 | 7 | 135 | 0.0 | 0.0 | 0.00 | 0.00 | 0.00 | 71 | 1011.8 |
| 20260502230021 | 7 | 270 | 0.0 | 0.0 | 0.00 | 0.00 | 0.00 | 72 | 1011.8 |
| 20260502224518 | 8 | 180 | 0.0 | 0.0 | 0.00 | 0.00 | 0.00 | 69 | 1011.7 |
| 20260502223017 | 8 | 270 | 1.6 | 3.2 | 0.00 | 0.00 | 0.00 | 68 | 1011.7 |
| 20260502221516 | 8 | 270 | 0.0 | 0.0 | 0.00 | 0.00 | 0.00 | 68 | 1011.6 |
| 20260502215248 | 9 | 135 | 0.0 | 0.0 | 0.00 | 0.00 | 0.00 | 64 | 1011.6 |
| 20260502213746 | 10 | 270 | 0.0 | 0.0 | 0.00 | 0.00 | 0.00 | 65 | 1011.5 |
| 20260502212245 | 10 | 270 | 0.0 | 0.0 | 0.00 | 0.00 | 0.00 | 62 | 1011.5 |
| 20260502210744 | 10 | 270 | 0.0 | 0.0 | 0.00 | 0.00 | 0.00 | 60 | 1011.4 |
| 20260502205242 | 11 | 270 | 0.0 | 0.0 | 0.00 | 0.00 | 0.00 | 59 | 1011.4 |
| 20260502203740 | 11 | 270 | 0.0 | 0.0 | 0.00 | 0.00 | 0.00 | 58 | 1011.3 |
| 20260502202241 | 12 | 270 | 0.0 | 0.0 | 0.00 | 0.00 | 0.00 | 56 | 1011.2 |
| 20260502200740 | 12 | 270 | 0.0 | 0.0 | 0.00 | 0.00 | 0.00 | 54 | 1011.2 |